• In Hungary
  • List of Countries
  • For 7 days
  • Water Temperature
  • Satellite Maps
  • Weather Map
  • News
  • Weather Widgets
  • user-avatar
    Login

    Hourly Weather Monheim

    Today, 14 December, Thursday

    Time Temperature Precipitation Wind Pressure Humidity
    00:00 +4°C° 1.4 mm 6 mps 739 mmHg 82%
    01:00 +3°C° 0.2 mm 5 mps 739 mmHg 83%
    02:00 +4°C° 0.2 mm 4 mps 739 mmHg 83%
    03:00 +3°C° 0.2 mm 4 mps 740 mmHg 84%
    04:00 +2°C° 1.1 mm 5 mps 740 mmHg 80%
    05:00 +2°C° 1.1 mm 7 mps 740 mmHg 77%
    06:00 +1°C° 1.1 mm 8 mps 741 mmHg 73%
    07:00 +1°C° 0 mm 8 mps 741 mmHg 73%
    08:00 +2°C° 0 mm 7 mps 742 mmHg 72%
    09:00 +2°C° 0 mm 7 mps 743 mmHg 72%
    10:00 +2°C° 0.1 mm 7 mps 743 mmHg 72%
    11:00 +3°C° 0.1 mm 7 mps 743 mmHg 71%
    12:00 +3°C° 0.1 mm 7 mps 743 mmHg 71%
    13:00 +3°C° 0.2 mm 6 mps 742 mmHg 73%
    14:00 +3°C° 0.2 mm 5 mps 742 mmHg 75%
    15:00 +3°C° 0.2 mm 4 mps 741 mmHg 76%
    16:00 +3°C° 0 mm 4 mps 741 mmHg 78%
    17:00 +3°C° 0 mm 4 mps 741 mmHg 80%
    18:00 +2°C° 0 mm 3 mps 740 mmHg 82%
    19:00 +2°C° 0 mm 3 mps 740 mmHg 83%
    20:00 +2°C° 0 mm 3 mps 740 mmHg 84%
    21:00 +2°C° 0 mm 3 mps 740 mmHg 85%
    22:00 +1°C° 0 mm 3 mps 740 mmHg 86%
    23:00 +1°C° 0 mm 3 mps 741 mmHg 86%

    Tomorrow, 15 December, Friday

    Time Temperature Precipitation Wind Pressure Humidity
    00:00 +1°C° 0 mm 3 mps 741 mmHg 87%
    01:00 +1°C° 0 mm 3 mps 741 mmHg 86%
    02:00 +1°C° 0 mm 3 mps 741 mmHg 85%
    03:00 0°C° 0 mm 3 mps 742 mmHg 85%
    04:00 0°C° 0 mm 3 mps 742 mmHg 85%
    05:00 0°C° 0 mm 3 mps 742 mmHg 85%
    06:00 0°C° 0 mm 3 mps 742 mmHg 85%
    07:00 0°C° 0 mm 3 mps 743 mmHg 85%
    08:00 0°C° 0 mm 3 mps 743 mmHg 85%
    09:00 +2°C° 0 mm 2 mps 743 mmHg 85%
    10:00 +3°C° 0 mm 2 mps 743 mmHg 83%
    11:00 +3°C° 0 mm 2 mps 743 mmHg 81%
    12:00 +4°C° 0 mm 2 mps 744 mmHg 79%
    13:00 +4°C° 0 mm 2 mps 744 mmHg 82%
    14:00 +3°C° 0 mm 2 mps 745 mmHg 85%
    15:00 +3°C° 0 mm 2 mps 745 mmHg 88%
    16:00 +3°C° 0 mm 2 mps 746 mmHg 90%
    17:00 +2°C° 0 mm 2 mps 746 mmHg 91%
    18:00 +2°C° 0 mm 2 mps 747 mmHg 93%
    19:00 +2°C° 0 mm 2 mps 748 mmHg 94%
    20:00 +2°C° 0 mm 2 mps 748 mmHg 94%
    21:00 +2°C° 0 mm 2 mps 749 mmHg 94%
    22:00 +2°C° 0.1 mm 2 mps 749 mmHg 93%
    23:00 +2°C° 0.1 mm 2 mps 750 mmHg 92%

    Day after tomorrow, 16 December, Saturday

    Time Temperature Precipitation Wind Pressure Humidity
    00:00 +3°C° 0.1 mm 2 mps 750 mmHg 91%
    01:00 +2°C° 0.1 mm 2 mps 750 mmHg 90%
    02:00 +2°C° 0.1 mm 2 mps 751 mmHg 89%
    03:00 +2°C° 0.1 mm 2 mps 751 mmHg 88%
    04:00 +1°C° 0.1 mm 2 mps 752 mmHg 89%
    05:00 0°C° 0.1 mm 3 mps 752 mmHg 89%
    06:00 0°C° 0.1 mm 3 mps 752 mmHg 90%
    07:00 0°C° 0 mm 3 mps 753 mmHg 89%
    08:00 +1°C° 0 mm 3 mps 754 mmHg 88%
    09:00 +1°C° 0 mm 3 mps 754 mmHg 87%
    10:00 +1°C° 0.1 mm 4 mps 755 mmHg 84%
    11:00 +3°C° 0.1 mm 4 mps 755 mmHg 81%
    12:00 +3°C° 0.1 mm 4 mps 755 mmHg 78%
    13:00 +3°C° 0.2 mm 4 mps 756 mmHg 79%
    14:00 +3°C° 0.2 mm 3 mps 756 mmHg 79%
    15:00 +2°C° 0.2 mm 3 mps 756 mmHg 80%
    16:00 +2°C° 0.1 mm 3 mps 757 mmHg 82%
    17:00 +1°C° 0.1 mm 3 mps 758 mmHg 84%
    18:00 +1°C° 0.1 mm 3 mps 758 mmHg 87%
    19:00 +1°C° 0.1 mm 3 mps 759 mmHg 88%
    20:00 0°C° 0.1 mm 3 mps 760 mmHg 89%
    21:00 0°C° 0.1 mm 3 mps 760 mmHg 90%
    22:00 0°C° 0.1 mm 3 mps 761 mmHg 90%
    23:00 0°C° 0.1 mm 3 mps 761 mmHg 91%

    17 December, Sunday

    Time Temperature Precipitation Wind Pressure Humidity
    00:00 0°C° 0.1 mm 3 mps 761 mmHg 91%
    01:00 0°C° 0.2 mm 3 mps 762 mmHg 92%
    02:00 0°C° 0.2 mm 3 mps 762 mmHg 92%
    03:00 +1°C° 0.2 mm 3 mps 762 mmHg 92%
    04:00 0°C° 0.2 mm 3 mps 763 mmHg 91%
    05:00 0°C° 0.2 mm 3 mps 763 mmHg 90%
    06:00 0°C° 0.2 mm 3 mps 763 mmHg 89%
    07:00 0°C° 0.1 mm 3 mps 764 mmHg 88%
    08:00 0°C° 0.1 mm 3 mps 764 mmHg 86%
    09:00 0°C° 0.1 mm 3 mps 765 mmHg 85%
    10:00 +1°C° 0.1 mm 3 mps 765 mmHg 84%
    11:00 +2°C° 0.1 mm 3 mps 765 mmHg 83%
    12:00 +2°C° 0.1 mm 3 mps 765 mmHg 83%
    13:00 +2°C° 0 mm 3 mps 765 mmHg 85%
    14:00 +3°C° 0 mm 2 mps 766 mmHg 88%
    15:00 +3°C° 0 mm 2 mps 766 mmHg 90%
    16:00 +3°C° 0 mm 2 mps 766 mmHg 91%
    17:00 +2°C° 0 mm 2 mps 766 mmHg 92%
    18:00 +2°C° 0 mm 2 mps 767 mmHg 93%
    19:00 +2°C° 0 mm 2 mps 767 mmHg 92%
    20:00 +2°C° 0 mm 2 mps 767 mmHg 91%
    21:00 +2°C° 0 mm 2 mps 767 mmHg 91%
    22:00 +1°C° 0 mm 3 mps 767 mmHg 90%
    23:00 +1°C° 0 mm 3 mps 767 mmHg 89%

    18 December, Monday

    Time Temperature Precipitation Wind Pressure Humidity
    00:00 +1°C° 0 mm 3 mps 767 mmHg 89%
    01:00 +1°C° 0 mm 3 mps 767 mmHg 89%
    02:00 0°C° 0 mm 4 mps 766 mmHg 89%
    03:00 +1°C° 0 mm 4 mps 766 mmHg 89%
    04:00 +1°C° 0.1 mm 4 mps 765 mmHg 90%
    05:00 +2°C° 0.1 mm 5 mps 765 mmHg 91%
    06:00 +2°C° 0.1 mm 5 mps 764 mmHg 91%
    07:00 +3°C° 0.9 mm 5 mps 764 mmHg 92%
    08:00 +3°C° 0.9 mm 6 mps 764 mmHg 92%
    09:00 +4°C° 0.9 mm 6 mps 764 mmHg 93%
    10:00 +4°C° 1 mm 6 mps 763 mmHg 94%
    11:00 +6°C° 1 mm 5 mps 763 mmHg 94%
    12:00 +6°C° 1 mm 5 mps 763 mmHg 95%
    13:00 +6°C° 0.3 mm 5 mps 763 mmHg 95%
    14:00 +6°C° 0.3 mm 4 mps 763 mmHg 96%
    15:00 +6°C° 0.3 mm 4 mps 763 mmHg 96%
    16:00 +6°C° 0.1 mm 4 mps 764 mmHg 95%
    17:00 +5°C° 0.1 mm 3 mps 765 mmHg 95%
    18:00 +5°C° 0.1 mm 3 mps 765 mmHg 94%
    19:00 +5°C° 0 mm 2 mps 766 mmHg 94%
    20:00 +5°C° 0 mm 2 mps 767 mmHg 94%
    21:00 +4°C° 0 mm 2 mps 767 mmHg 93%
    22:00 +4°C° 0 mm 2 mps 768 mmHg 94%
    23:00 +4°C° 0 mm 2 mps 768 mmHg 94%

    19 December, Tuesday

    Time Temperature Precipitation Wind Pressure Humidity
    00:00 +4°C° 0 mm 1 mps 769 mmHg 94%
    01:00 +4°C° 0 mm 1 mps 769 mmHg 94%
    02:00 +4°C° 0 mm 1 mps 770 mmHg 95%
    03:00 +4°C° 0 mm 1 mps 770 mmHg 95%
    04:00 +4°C° 0 mm 1 mps 770 mmHg 96%
    05:00 +4°C° 0 mm 1 mps 771 mmHg 96%
    06:00 +3°C° 0 mm 1 mps 771 mmHg 96%
    07:00 +4°C° 0 mm 1 mps 772 mmHg 96%
    08:00 +4°C° 0 mm 1 mps 772 mmHg 95%
    09:00 +4°C° 0 mm 1 mps 772 mmHg 94%
    10:00 +5°C° 0 mm 1 mps 772 mmHg 93%
    11:00 +5°C° 0 mm 1 mps 772 mmHg 91%
    12:00 +6°C° 0 mm 1 mps 772 mmHg 90%
    13:00 +6°C° 0 mm 1 mps 772 mmHg 90%
    14:00 +5°C° 0 mm 2 mps 772 mmHg 91%
    15:00 +5°C° 0 mm 2 mps 772 mmHg 92%
    16:00 +5°C° 0 mm 2 mps 773 mmHg 93%
    17:00 +5°C° 0 mm 2 mps 773 mmHg 94%
    18:00 +5°C° 0 mm 2 mps 773 mmHg 95%
    19:00 +5°C° 0.1 mm 2 mps 773 mmHg 95%
    20:00 +6°C° 0.1 mm 2 mps 774 mmHg 96%
    21:00 +6°C° 0.1 mm 2 mps 774 mmHg 97%
    22:00 +5°C° 0 mm 3 mps 774 mmHg 96%
    23:00 +5°C° 0 mm 3 mps 774 mmHg 96%
    Show more